Terminal Aerodrome Forecast
Issued by NWS

Home | Current Version | Previous Version | Text Only | Print | Product List | Glossary On
Versions: 1 2 3 4 5 6 7 8 9 10 11 12 13
723
FTUS46 KMFR 241353 AAA
TAFRBG
TAF AMD
KRBG 241353Z 2414/2512 00000KT P6SM VCFG OVC009
     FM241700 VRB03KT P6SM SCT025 SCT050
     FM242100 35008KT P6SM VCSH BKN050=

USA.gov is the U.S. government's official web portal to all federal, state and local government web resources and services.